Location: Bo?a Wola
(50.4192°N, 19.7966°E)
Time: 11:40:17
(UTC+00:00)

Cosmos 990 Rocket - Pass Details

Date: 15 June 2024
Orbit: 744 x 766 km, 74.0° (Epoch: 15 July)

Event Time Altitude Azimuth Distance (km) Brightness Sun altitude
Exits shadow 00:08:19 18° 224° (SW) 1,772 5.3 -13.8°
Maximum altitude 00:12:02 57° 299° (WNW) 882 4.3 -13.6°
Drops below altitude 10° 00:17:06 10° 18° (NNE) 2,272 7.9 -13.3°
Sets 00:19:31 0° 22° (NNE) 3,201 9.3 -13.1°
